Lancaster, SC

8:26 AM EDT on August 21, 2017 (GMT -0400)
Lancaster County-McWhirter

Weather History for KLKR - January, 2014

Change the Weather History Date:

Thursday, January 9, 2014

  Actual Average (KUZA) Record (KUZA)
Temperature  
Mean Temperature 38 °F -  
Max Temperature 53 °F 47 °F 73 °F (1949)
Min Temperature 23 °F 30 °F 4 °F (1970)
Degree Days  
Heating Degree Days 27    
Moisture  
Dew Point 23 °F    
Average Humidity 61    
Maximum Humidity 86    
Minimum Humidity 25    
Precipitation  
Precipitation 0.00 in - - ()
Sea Level Pressure  
Sea Level Pressure 30.49 in    
Wind  
Wind Speed 0 mph (NE)    
Max Wind Speed 5 mph    
Max Gust Speed -    
Visibility 10 miles    
Events      
Averages and records for this station are not official NWS values.
T = Trace of Precipitation, MM = Missing Value Source: NWS Daily Summary

Daily Weather History Graph

Daily Weather History Graph

Search for Another Location

Airport or City:

Trip Planner

Search our weather history database for the weather conditions in past years. The results will help you decide how hot, cold, wet, or windy it might be!

Date:

Astronomy

Jan. 09, 2014 Rise Set
Actual Time 7:31 AM EST 5:30 PM EST
Civil Twilight 7:03 AM EST 5:57 PM EST
Nautical Twilight 6:32 AM EST 6:29 PM EST
Astronomical Twilight 6:01 AM EST 6:59 PM EST
Moon 12:51 PM EST (1/9) 1:43 AM EST (1/9)
Length of Visible Light 10h 54m
Length of Day
9h 58m
Waxing Gibbous, 66% of the Moon is Illuminated
Jan 9
Waxing Gibbous
Jan 15
Full
Jan 24
Last Quarter
Jan 30
New
Feb 6
First Quarter

Hourly Weather History & Observations

Time (EST) Temp. Windchill Dew Point Humidity Pressure Visibility Wind Dir Wind Speed Gust Speed Precip Events Conditions
12:15 AM 23.0 °F - 17.6 °F 80% 30.52 in 10.0 mi Calm Calm - N/A   Clear
12:35 AM 23.0 °F - 17.6 °F 80% 30.51 in 10.0 mi Calm Calm - N/A   Clear
12:55 AM 23.0 °F - 15.8 °F 74% 30.50 in 10.0 mi Calm Calm - N/A   Clear
1:15 AM 23.0 °F - 17.6 °F 80% 30.50 in 10.0 mi Calm Calm - N/A   Clear
1:35 AM 23.0 °F - 17.6 °F 80% 30.50 in 10.0 mi Calm Calm - N/A   Clear
1:55 AM 23.0 °F - 15.8 °F 74% 30.49 in 10.0 mi Calm Calm - N/A   Clear
2:15 AM 23.0 °F - 17.6 °F 80% 30.49 in 10.0 mi Calm Calm - N/A   Clear
2:35 AM 23.0 °F - 15.8 °F 74% 30.51 in 10.0 mi Calm Calm - N/A   Clear
2:55 AM 23.0 °F - 15.8 °F 74% 30.51 in 10.0 mi Calm Calm - N/A   Clear
3:15 AM 23.0 °F - 17.6 °F 80% 30.51 in 10.0 mi Calm Calm - N/A   Clear
3:35 AM 23.0 °F - 17.6 °F 80% 30.51 in 10.0 mi Calm Calm - N/A   Clear
3:55 AM 23.0 °F - 17.6 °F 80% 30.51 in 10.0 mi Calm Calm - N/A   Partly Cloudy
4:15 AM 23.0 °F - 17.6 °F 80% 30.50 in 10.0 mi Calm Calm - N/A   Partly Cloudy
4:35 AM 23.0 °F - 17.6 °F 80% 30.50 in 10.0 mi Calm Calm - N/A   Partly Cloudy
4:55 AM 23.0 °F 18.4 °F 17.6 °F 80% 30.49 in 10.0 mi NNE 3.5 mph - N/A   Scattered Clouds
5:15 AM 23.0 °F - 19.4 °F 86% 30.50 in 10.0 mi Calm Calm - N/A   Clear
5:35 AM 23.0 °F - 19.4 °F 86% 30.50 in 10.0 mi Calm Calm - N/A   Clear
5:55 AM 23.0 °F - 19.4 °F 86% 30.51 in 10.0 mi Calm Calm - N/A   Clear
6:15 AM 23.0 °F - 19.4 °F 86% 30.52 in 10.0 mi Calm Calm - N/A   Clear
6:35 AM 23.0 °F - 19.4 °F 86% 30.52 in 10.0 mi Calm Calm - N/A   Clear
6:55 AM 23.0 °F - 17.6 °F 80% 30.52 in 10.0 mi Calm Calm - N/A   Clear
7:15 AM 23.0 °F - 19.4 °F 86% 30.52 in 10.0 mi Calm Calm - N/A   Clear
7:35 AM 23.0 °F - 17.6 °F 80% 30.53 in 10.0 mi Calm Calm - N/A   Clear
7:55 AM 23.0 °F - 17.6 °F 80% 30.54 in 10.0 mi Calm Calm - N/A   Clear
8:15 AM 23.0 °F - 19.4 °F 86% 30.55 in 10.0 mi Calm Calm - N/A   Clear
8:35 AM 23.0 °F - 19.4 °F 86% 30.55 in 10.0 mi Calm Calm - N/A   Clear
8:55 AM 24.8 °F 20.5 °F 19.4 °F 80% 30.54 in 10.0 mi NNE 3.5 mph - N/A   Clear
9:15 AM 28.4 °F 24.6 °F 17.6 °F 64% 30.55 in 10.0 mi NE 3.5 mph - N/A   Clear
9:35 AM 32.0 °F - 14.0 °F 48% 30.55 in 10.0 mi Calm Calm - N/A   Clear
9:55 AM 37.4 °F - 12.2 °F 36% 30.55 in 10.0 mi Calm Calm - N/A   Clear
10:15 AM 41.0 °F 38.0 °F 14.0 °F 33% 30.56 in 10.0 mi NNE 4.6 mph - N/A   Clear
10:35 AM 42.8 °F 41.1 °F 8.6 °F 25% 30.55 in 10.0 mi NE 3.5 mph - N/A   Clear
10:55 AM 44.6 °F 43.1 °F 10.4 °F 25% 30.55 in 10.0 mi NE 3.5 mph - N/A   Clear
11:15 AM 48.2 °F - 17.6 °F 30% 30.54 in 10.0 mi Calm Calm - N/A   Clear
11:35 AM 48.2 °F - 19.4 °F 32% 30.54 in 10.0 mi Calm Calm - N/A   Clear
11:55 AM 50.0 °F - 21.2 °F 32% 30.52 in 10.0 mi SE 3.5 mph - N/A   Clear
12:15 PM 50.0 °F - 23.0 °F 35% 30.52 in 10.0 mi Calm Calm - N/A   Scattered Clouds
12:35 PM 50.0 °F - 23.0 °F 35% 30.50 in 10.0 mi Calm Calm - N/A   Overcast
12:55 PM 51.8 °F - 23.0 °F 33% 30.48 in 10.0 mi Calm Calm - N/A   Overcast
1:15 PM 53.6 °F - 23.0 °F 30% 30.47 in 10.0 mi Calm Calm - N/A   Scattered Clouds
1:35 PM 53.6 °F - 23.0 °F 30% 30.46 in 10.0 mi Calm Calm - N/A   Scattered Clouds
1:55 PM 53.6 °F - 24.8 °F 33% 30.45 in 10.0 mi Calm Calm - N/A   Overcast
2:15 PM 53.6 °F - 26.6 °F 35% 30.45 in 10.0 mi ENE 3.5 mph - N/A   Mostly Cloudy
2:35 PM 53.6 °F - 26.6 °F 35% 30.44 in 10.0 mi East 3.5 mph - N/A   Overcast
2:55 PM 53.6 °F - 28.4 °F 38% 30.44 in 10.0 mi Calm Calm - N/A   Overcast
3:35 PM 51.8 °F - 28.4 °F 41% 30.44 in 10.0 mi Calm Calm - N/A   Overcast
3:55 PM 50.0 °F - 28.4 °F 43% 30.45 in 10.0 mi Calm Calm - N/A   Overcast
4:15 PM 50.0 °F - 30.2 °F 47% 30.45 in 10.0 mi Calm Calm - N/A   Overcast
4:35 PM 50.0 °F - 30.2 °F 47% 30.46 in 10.0 mi Calm Calm - N/A   Overcast
4:55 PM 48.2 °F - 32.0 °F 54% 30.46 in 10.0 mi Calm Calm - N/A   Overcast
5:15 PM 48.2 °F - 32.0 °F 54% 30.46 in 10.0 mi Calm Calm - N/A   Overcast
6:35 PM 44.6 °F - 32.0 °F 61% 30.46 in 10.0 mi Calm Calm - N/A   Overcast
6:55 PM 44.6 °F - 32.0 °F 61% 30.47 in 10.0 mi Calm Calm - N/A   Overcast
7:15 PM 44.6 °F - 32.0 °F 61% 30.47 in 10.0 mi Calm Calm - N/A   Overcast
7:35 PM 44.6 °F - 32.0 °F 61% 30.47 in 10.0 mi Calm Calm - N/A   Mostly Cloudy
7:55 PM 44.6 °F - 32.0 °F 61% 30.48 in 10.0 mi Calm Calm - N/A   Overcast
8:15 PM 46.4 °F - 32.0 °F 57% 30.48 in 10.0 mi Calm Calm - N/A   Overcast
8:35 PM 46.4 °F - 32.0 °F 57% 30.48 in 10.0 mi Calm Calm - N/A   Mostly Cloudy
8:55 PM 44.6 °F - 32.0 °F 61% 30.48 in 10.0 mi Calm Calm - N/A   Overcast
9:15 PM 44.6 °F - 35.6 °F 71% 30.48 in 10.0 mi Calm Calm - N/A   Overcast
9:35 PM 44.6 °F - 33.8 °F 66% 30.48 in 10.0 mi Calm Calm - N/A   Overcast
9:55 PM 44.6 °F - 35.6 °F 71% 30.47 in 10.0 mi Calm Calm - N/A   Overcast
10:15 PM 44.6 °F - 35.6 °F 71% 30.47 in 10.0 mi Calm Calm - N/A   Overcast
10:35 PM 44.6 °F - 35.6 °F 71% 30.46 in 10.0 mi Calm Calm - N/A   Overcast
10:55 PM 44.6 °F - 32.0 °F 61% 30.45 in 10.0 mi Calm Calm - N/A   Overcast
11:15 PM 46.4 °F - 32.0 °F 57% 30.44 in 10.0 mi Calm Calm - N/A   Overcast
11:35 PM 46.4 °F - 32.0 °F 57% 30.43 in 10.0 mi Calm Calm - N/A   Mostly Cloudy
11:55 PM 46.4 °F - 35.6 °F 66% 30.42 in 10.0 mi Calm Calm - N/A   Mostly Cloudy